Theta_e
295 296 296 296 296 296 295 296 296 295 295 295 295 294 294 294 293 292 292 290 290 292
295 295 296 296 296 297 295 297 295 296 295 295 295 295 294 294 293 293 292 292 291 291
295 295 296 296 295 296 296 295 296 295 295 295 295 295 294 294 294 292 293 293 291 291
294 294 295 296 296 296 296 295 296 296 296 295 295 294 293 294 294 292 293 293 292 292
296 295 294 295 296 295 295 295 296 296 296 296 296 295 294 294 295 293 293 293 293 293
296 295 294 295 295 295 296 296 295 296 296 296 296 295 295 295 295 294 294 294 293 294
295 295 295 295 295 295 295 296 295 296 297 297 296 296 296 295 295 295 295 295 295 295
295 295 294 294 294 294 294 296 296 295 296 296 297 297 295 295 295 295 295 295 295 295
294 294 294 293 293 293 293 293 294 294 295 295 297 302 304 299 295 295 295 294 295 296
294 294 293 293 293 293 292 292 292 292 293 294 295 302 305 306 300 296 295 295 295 295
294 293 293 292 292 292 291 292 292 292 293 293 294 301 303 305 302 300 299 297 296 295
294 293 293 292 292 292 291 291 292 293 292 292 294 301 303 303 299 298 299 300 299 297
295 294 293 294 293 292 291 293 293 293 292 296 294 300 302 303 299 296 297 297 298 303
296 294 294 294 292 292 292 292 291 292 293 292 294 295 302 303 299 297 296 296 297 298
Wind_Speed
13 10 10 11 9 9 9 9 9 10 11 12 10 10 9 8 8 8 9 9 8 7
11 12 12 12 9 9 8 8 8 10 11 11 11 11 10 9 10 9 9 10 10 9
10 11 11 8 10 11 10 9 8 9 10 10 10 11 10 9 9 9 8 8 9 9
7 8 7 9 10 11 8 9 11 10 10 10 10 10 9 11 10 11 10 9 10 12
6 7 7 9 9 8 10 7 10 9 10 10 10 10 11 12 11 12 12 12 11 12
7 7 8 8 7 7 8 9 8 8 10 10 11 10 11 12 11 12 13 12 12 13
8 8 7 7 7 7 8 8 7 9 10 10 10 11 11 11 12 12 12 12 13 13
7 7 7 7 7 7 7 7 7 7 8 8 9 8 11 11 12 12 12 12 12 13
7 6 7 7 7 6 6 7 7 8 9 9 9 17 21 15 11 12 12 12 12 13
7 7 7 6 7 7 7 6 7 8 8 12 11 18 20 20 11 10 12 12 11 10
6 8 7 7 8 7 6 7 7 9 10 9 9 17 19 19 12 11 13 12 13 13
7 8 7 8 9 7 6 6 8 7 7 7 11 13 17 14 8 10 14 12 12 13
7 8 8 9 8 6 6 9 5 7 8 11 11 14 15 13 6 9 9 9 11 19
7 7 8 7 5 6 7 6 7 9 8 8 10 10 16 17 7 8 7 8 8 8
Wind_Direction
223 225 230 230 223 224 220 219 213 207 212 216 211 210 205 211 219 208 222 212 207 213
221 221 228 228 221 227 221 219 208 204 206 212 211 210 205 217 218 212 214 220 220 216
219 221 227 222 218 221 227 215 210 207 212 212 212 212 205 217 219 208 217 217 213 218
228 220 218 222 226 222 221 208 215 214 216 216 215 211 209 219 217 212 224 217 215 224
239 226 226 230 229 216 223 212 216 212 213 217 216 212 213 220 221 215 223 225 218 227
243 234 236 235 231 219 224 223 213 207 212 216 215 214 216 221 224 222 222 220 219 225
249 241 238 237 230 223 221 227 218 217 219 219 218 217 218 220 225 228 229 226 224 224
256 257 255 250 239 232 222 229 226 223 223 220 217 218 216 218 223 227 233 232 229 230
260 259 256 260 256 248 239 229 224 226 229 225 230 234 231 219 223 226 230 234 231 232
269 268 258 261 260 253 248 235 235 233 224 237 235 238 242 239 231 228 232 234 236 234
255 265 259 254 252 252 233 236 238 240 233 242 251 244 245 248 245 245 246 238 236 235
229 253 255 250 251 242 223 236 238 233 238 226 256 246 242 241 233 237 244 244 235 231
245 239 253 255 259 244 223 243 240 246 230 235 249 251 244 241 229 236 247 249 243 237
259 245 245 253 238 248 252 249 242 242 243 227 227 242 240 243 231 234 243 244 254 244